ITF-2 (41932 NORAD) Tracking and Keplerian Element Data

This shows tracking and keplerian element data for the satellite.

Feedback or suggestion? Click here.




ElementValue
Catalog41932
NameITF-2
Epoch Orbit8622
Epoch Day202.76629731
Epoch Year2018
RAAN162.335
Inclination51.6296
Eccentricity0.0003587
Argument of Perigee8.938
Mean Anonmoly351.1684
Mean Motion15.78560947
Decay Rate0.00039288
L11 41932U 98067KU 18202.76629731 .00039288 00000-0 22351-3 0 9999
L22 41932 51.6296 162.3350 0003587 8.9380 351.1684 15.78560947 86229

Live tracking and technical data element details for ITF-2 (NORAD 41932). ITF-2 can be tracked NOW for your location showing map with azimuth and elevation plus other details from your city location.

Track the satellite on the map from your city or location and see movement details for azimuth, elevation, latitude, longitude, range, height, and movement on the map or in text.







IsCatalogInMostPopularTable: catalog: 41932, numindb: 78
Update: records affected: 1



GetName: 41932 ITF-2

Hit Count: updated at: Mon, 23 Jul 2018 07:44:39 GMT